User: anonymous   Login
Location: Fiddletown
(38.4917°N, 120.6633°W)
Time: 17:18:31
(UTC-07:00)
Language:

Envisat - Orbit

View from above orbital plane
View from above orbital plane
View from above satellite
View from above satellite

Ground track
Ground track

The orbit data is extracted from the following two-line orbital elements,

1 27386U 02009A   15187.36313161 -.00000383  00000-0 -11302-3 0  9999
2 27386 098.3306 247.2207 0000970 092.3344 267.7949 14.37821918698788
Epoch (UTC): 06 July 2015 08:42:54
Eccentricity: 0.0000970
inclination: 98.3306°
perigee height: 765 km
apogee height: 766 km
right ascension of ascending node: 247.2207°
argument of perigee: 92.3344°
revolutions per day: 14.37821918
mean anomaly at epoch: 267.7949°
orbit number at epoch: 69878

The dashed part of the orbit path shows where the satellite is in the earth's shadow,  

DLR